Location: Friendly Valley
(37.6901°N, 89.9107°W)
Time: 02:02:16
(UTC+00:00)

Hubble Space Telescope - Visible Passes

Search period start: 13 October 2024 00:00
Search period end: 23 October 2024 00:00
Orbit: 503 x 507 km, 28.5° (Epoch: 12 October)

Date Brightness Start Highest point End Pass type
(mag) Time Alt. Az. Time Alt. Az. Time Alt. Az.
16 Oct 3.0 00:52:52 10° S 00:53:58 12° SSE 00:53:58 12° SSE visible
17 Oct 2.9 00:30:57 10° S 00:32:41 13° SSE 00:33:41 12° SSE visible
18 Oct 2.9 00:09:02 10° SSW 00:11:01 13° SSE 00:12:59 10° SE visible
18 Oct 3.6 01:47:49 10° SW 01:47:58 11° SW 01:47:58 11° SW visible
18 Oct 2.9 23:47:10 10° SSW 23:49:19 14° SSE 23:51:28 10° SE visible
19 Oct 3.0 01:26:07 10° SW 01:27:33 17° SSW 01:27:33 17° SSW visible
20 Oct 2.5 01:04:23 10° SW 01:07:05 21° S 01:07:05 21° S visible
21 Oct 2.4 00:42:39 10° SW 00:45:40 21° S 00:46:35 19° SSE visible
22 Oct 2.5 00:20:53 10° SW 00:23:53 21° S 00:26:04 14° SE visible
